Theta_e
303 303 303 304 304 304 304 304 304 304 304 304 304 304 304 304 303 303 303 303 303 303 303 303 303 303 303 306 306 306 305 303 304 304 304 304 305 305 305 305 305 305 305 306 306 306 306 306 307 306 306 307 307 308 306 307 308 309 315 313 310 316 315 312 313 313 313 316 314 310 308 308 310 309 308 310 311 311 312 314 316 319 325 329 329 330 332 333
303 303 303 303 304 304 304 304 304 304 304 304 304 304 304 304 304 303 303 303 303 303 303 303 303 303 303 305 307 307 307 304 303 304 304 303 304 305 305 305 306 306 305 306 306 306 306 306 307 307 307 307 307 308 306 307 307 309 313 310 312 318 311 308 311 311 311 312 311 308 307 307 308 307 306 308 308 309 310 311 312 314 319 326 329 329 331 332
303 303 303 303 304 304 304 304 304 304 304 304 304 304 304 304 304 303 303 303 303 303 303 303 303 303 303 304 307 308 309 307 304 304 303 303 304 304 305 305 306 306 306 307 306 306 306 306 307 307 307 307 307 307 307 307 307 306 307 309 317 315 306 307 309 308 308 308 307 306 306 305 305 305 305 308 308 308 310 309 309 312 315 321 326 329 331 331
303 303 303 303 303 304 305 304 304 304 304 304 304 304 304 304 304 303 304 303 303 303 303 303 303 303 303 304 307 307 310 309 304 303 303 303 303 303 304 305 305 306 306 307 307 307 308 308 307 307 307 307 306 307 307 307 307 306 306 311 313 306 304 307 307 307 307 306 306 305 306 305 305 305 306 307 308 309 308 307 308 310 311 318 325 328 331 331
303 303 303 303 303 304 305 304 304 304 304 304 304 304 304 304 304 303 303 303 303 303 303 303 303 303 303 305 307 307 310 310 304 303 303 303 303 303 304 305 305 306 306 307 307 307 308 308 308 307 307 307 307 308 307 307 307 307 307 308 306 303 306 307 305 307 306 306 306 305 305 305 305 305 305 306 307 307 306 304 305 307 313 321 325 326 330 332
303 303 303 303 303 304 305 305 304 304 304 304 304 304 304 304 304 304 303 303 303 303 302 303 303 303 303 305 308 308 308 307 304 303 303 303 303 303 304 305 305 306 306 306 306 307 307 307 308 307 306 307 307 307 307 307 307 309 310 307 305 305 307 307 307 307 307 306 306 305 305 305 305 305 305 305 306 306 305 305 303 305 312 319 319 317 323 331
303 303 303 303 303 304 304 305 304 304 304 304 304 304 304 304 304 304 303 303 303 303 302 303 303 303 303 304 309 308 305 304 304 303 303 303 303 303 303 305 305 306 306 306 306 306 307 306 307 306 306 307 306 305 306 307 306 309 311 308 307 307 307 308 308 308 308 307 307 306 306 306 306 307 306 305 306 307 307 307 305 304 306 310 312 311 315 323
303 303 303 303 303 303 304 305 304 304 304 304 304 304 304 304 304 304 303 303 303 303 302 303 303 303 303 303 307 309 304 303 303 303 303 303 303 303 303 305 305 306 306 306 306 306 306 306 307 306 306 308 306 305 306 307 307 308 311 309 307 308 308 309 309 309 309 308 308 307 306 307 307 306 306 306 308 309 308 308 307 306 306 305 306 308 308 312
303 303 303 303 303 303 304 305 304 304 304 304 304 304 304 304 304 304 304 303 303 303 302 303 303 302 303 303 307 309 305 303 303 303 303 303 302 303 303 305 305 305 305 306 305 306 306 306 306 306 307 307 306 306 305 307 310 308 309 308 307 308 308 308 308 308 308 308 308 307 307 308 307 307 307 308 309 309 308 307 307 307 307 306 304 304 305 305
304 303 303 303 303 303 304 304 304 304 304 304 304 304 304 304 304 304 304 303 303 303 303 303 303 302 303 305 308 309 304 303 303 303 304 303 302 303 304 305 305 305 305 305 306 306 307 306 306 306 307 306 306 306 305 308 310 308 307 307 307 308 308 308 308 308 308 307 307 308 309 308 307 307 309 310 309 309 308 308 307 307 306 306 306 304 303 303
303 303 303 303 303 303 304 305 304 303 304 304 304 304 304 304 304 304 304 304 303 303 303 302 303 302 302 306 308 306 304 303 303 303 303 303 302 303 304 305 304 305 305 305 306 307 307 307 307 306 307 306 306 307 307 307 308 307 307 308 308 307 308 308 308 308 309 309 308 308 308 307 307 308 309 309 309 309 308 308 308 307 307 307 307 305 304 303
304 303 303 303 303 303 304 304 304 304 304 304 304 304 304 304 304 304 304 303 303 303 303 302 303 302 303 307 308 304 304 303 302 303 303 303 302 303 304 304 304 305 305 306 307 308 308 308 307 307 307 306 307 308 308 307 307 308 307 309 311 309 310 310 309 309 309 311 309 307 308 310 310 309 310 309 309 309 308 308 308 308 308 308 307 306 306 305
304 303 303 303 303 303 304 304 304 304 304 304 305 304 304 305 304 304 304 304 303 303 303 302 302 302 303 307 307 304 304 303 302 302 303 303 302 303 304 304 304 305 306 306 308 309 309 309 308 307 307 307 308 308 308 307 307 309 307 309 312 312 315 312 308 309 309 311 309 308 311 315 314 310 309 309 309 308 308 309 309 309 308 308 308 307 306 306
303 303 303 303 303 303 304 304 304 304 304 304 304 304 304 304 304 305 304 304 303 303 303 302 303 302 303 307 307 305 305 303 302 302 303 303 302 303 303 303 305 305 306 308 309 310 310 309 308 308 308 308 308 308 310 308 308 311 309 309 311 312 318 315 308 308 311 311 309 309 311 313 314 310 309 309 308 308 308 309 309 309 309 309 308 307 306 306
303 303 303 303 303 303 303 304 303 304 304 304 304 304 304 304 304 304 304 304 303 303 303 303 303 302 304 307 307 305 305 304 302 302 303 303 303 303 303 304 306 306 307 308 309 310 310 309 308 308 308 308 309 311 313 313 311 312 311 313 313 312 315 313 307 308 311 311 308 308 312 312 311 309 309 310 309 308 308 309 310 309 309 309 309 308 307 307
303 303 303 303 303 303 303 304 304 304 304 304 304 304 304 304 304 304 304 304 303 304 304 304 303 303 307 309 306 306 305 304 302 303 304 303 303 303 303 305 306 306 307 309 310 310 310 309 308 308 308 309 310 312 315 317 316 314 312 313 314 311 310 310 309 308 309 310 308 308 312 312 310 308 309 310 309 309 308 309 309 309 309 309 309 309 308 307
303 303 303 303 303 303 303 303 303 304 304 304 304 304 304 303 304 305 305 304 304 307 306 304 304 306 310 309 306 305 305 303 302 303 304 304 303 303 304 306 305 305 307 309 311 310 310 309 308 309 308 308 310 312 314 315 314 313 312 311 310 310 309 309 311 309 307 310 311 310 310 310 309 308 308 309 309 308 308 308 308 309 309 309 309 309 309 308
303 303 303 303 303 303 303 303 303 304 304 304 304 304 303 304 307 307 305 305 306 309 309 306 306 308 310 307 305 305 303 302 302 304 305 304 303 303 306 306 305 306 307 309 310 310 310 308 308 312 314 312 312 314 312 310 310 310 311 310 309 309 309 309 310 309 308 310 311 310 309 309 308 308 307 308 308 308 307 308 308 308 309 309 309 309 309 309
303 303 303 302 303 303 303 303 303 303 303 304 303 303 304 306 308 307 306 306 306 308 309 307 305 306 306 304 304 303 303 303 303 304 305 304 303 304 307 306 305 306 307 310 311 309 309 310 312 316 318 317 315 314 312 311 311 311 310 310 309 309 309 308 309 308 307 309 309 309 309 309 309 308 308 308 308 308 308 308 308 308 308 308 309 309 309 309
304 303 303 302 303 302 303 303 303 303 303 303 303 303 306 307 307 309 307 305 305 305 306 305 303 303 303 303 303 303 303 303 304 304 305 304 303 304 307 305 305 307 307 308 310 308 308 314 318 318 317 317 315 314 313 312 311 310 311 310 309 308 308 308 308 308 306 308 310 310 310 309 309 309 308 308 308 307 307 307 307 308 308 308 308 309 309 309
304 303 303 302 303 302 303 303 303 303 303 303 303 303 305 304 305 308 306 304 306 306 306 305 303 303 303 303 303 303 303 303 304 305 305 304 303 305 306 305 308 311 307 305 308 308 308 312 314 316 316 314 312 312 311 311 311 311 311 309 308 308 308 307 307 308 306 308 310 309 309 309 308 308 307 307 308 307 307 307 307 307 307 308 308 308 308 309
304 304 303 302 302 302 302 303 303 303 303 303 303 303 304 303 304 305 303 304 306 306 306 305 304 303 303 304 304 304 303 303 304 305 304 304 304 305 306 307 310 312 308 307 310 310 312 314 310 310 310 308 310 312 310 310 310 310 309 309 309 308 308 308 309 310 308 308 309 308 308 308 307 308 307 306 306 307 307 307 307 307 307 307 307 308 308 309
304 303 303 302 302 302 302 303 303 303 303 303 303 303 303 303 303 303 302 305 307 306 307 306 304 303 303 305 305 304 303 304 304 304 304 304 304 304 306 308 311 311 310 312 312 311 315 318 311 306 306 308 311 312 309 309 309 308 308 309 309 308 308 309 310 311 309 307 308 308 307 307 308 309 308 307 306 307 307 307 307 307 307 307 307 307 308 308
304 303 303 302 302 302 302 302 302 302 303 303 302 303 302 303 303 303 303 305 307 307 306 306 303 302 304 304 304 304 303 304 304 304 304 304 303 305 306 306 310 313 311 311 310 310 313 312 307 306 308 310 310 310 309 309 310 309 308 310 310 308 308 309 308 307 307 307 308 307 307 308 309 310 309 308 307 306 307 307 307 307 307 307 307 307 307 308
303 303 303 302 302 302 302 302 302 302 302 302 302 302 302 303 302 303 305 307 311 309 305 305 304 303 305 305 305 304 303 304 305 304 305 304 303 305 305 304 309 314 313 310 309 311 312 307 305 310 313 311 309 310 309 307 309 311 310 311 310 308 309 308 307 307 307 308 308 307 308 309 308 308 309 308 307 307 307 307 308 308 308 308 308 308 308 308
302 303 303 302 302 302 301 302 302 302 303 302 302 302 302 303 302 302 307 314 319 313 307 307 306 306 307 305 305 304 305 307 305 305 305 304 304 305 305 306 306 309 311 309 307 308 309 306 306 310 312 310 309 310 309 307 309 311 310 310 309 308 309 308 307 307 308 308 307 306 308 309 308 308 308 308 307 308 309 308 308 307 308 308 308 308 308 308
303 302 302 302 302 301 301 302 302 302 302 302 303 302 301 303 303 302 309 319 319 310 308 309 307 308 308 304 304 304 305 306 305 306 305 303 305 304 307 309 307 307 307 308 311 311 309 309 309 310 310 309 310 311 309 308 309 310 309 308 309 309 308 308 307 307 307 306 307 308 309 309 309 309 309 308 308 309 309 308 308 307 307 308 308 308 308 308
302 302 302 302 301 301 301 302 304 302 301 304 303 301 302 303 303 305 313 319 314 308 308 309 306 307 307 304 305 305 305 304 303 306 305 303 305 304 306 308 306 307 305 306 313 312 306 308 309 308 308 309 311 312 309 307 308 310 310 308 309 309 308 307 307 307 306 306 308 309 310 310 309 310 311 309 309 310 309 308 307 307 307 307 308 308 308 308
301 301 302 302 301 302 301 302 305 302 303 305 302 302 303 302 304 310 316 314 309 308 309 308 306 307 306 305 306 305 305 305 304 305 305 304 306 305 306 306 304 305 305 305 312 312 306 306 306 305 308 311 313 311 308 308 309 308 308 308 309 308 306 307 307 308 307 307 310 310 309 310 308 310 313 310 310 310 308 307 307 306 307 307 307 307 307 308
301 301 302 301 301 301 301 303 304 303 304 303 301 303 302 304 313 319 318 313 309 307 307 307 306 306 306 306 307 305 303 306 305 305 305 304 306 306 305 305 304 305 306 305 308 309 304 303 304 306 308 309 309 307 304 306 307 306 307 309 309 307 306 308 308 307 309 310 311 309 309 309 307 310 313 311 311 310 308 307 306 306 306 307 307 306 307 308
301 300 301 301 301 301 301 302 304 304 303 302 302 302 302 310 321 322 314 310 310 307 306 307 306 306 307 305 306 306 304 305 304 305 306 306 307 307 307 307 306 309 314 310 307 307 306 305 305 307 306 306 308 307 305 304 303 306 309 309 310 310 310 311 309 308 311 312 310 309 309 308 307 309 311 311 311 309 308 307 306 306 306 306 306 306 307 308
301 300 301 301 300 301 301 302 304 303 302 302 301 303 309 312 314 319 315 309 311 309 306 307 306 306 308 305 305 307 306 304 304 305 306 306 308 308 307 307 306 309 315 311 306 309 314 309 304 305 307 306 308 309 309 309 308 309 310 309 310 311 310 310 309 309 311 311 311 310 307 307 308 308 308 310 311 309 307 306 305 306 306 306 306 307 308 308
301 300 300 301 301 301 301 302 303 302 302 302 300 305 315 313 311 319 318 311 309 306 304 307 305 305 307 306 307 306 303 303 305 305 303 304 309 308 304 304 303 305 308 308 306 309 315 312 306 308 309 305 307 309 309 312 312 310 310 311 312 311 310 310 308 309 310 309 310 309 306 307 308 308 312 313 310 308 306 306 306 306 306 306 306 308 308 308
302 300 300 301 301 300 301 302 302 302 301 301 303 308 312 311 314 317 314 312 307 303 304 306 305 306 305 305 307 304 302 303 304 305 305 306 310 311 308 305 303 304 305 306 305 304 307 311 311 309 307 306 309 308 307 309 310 309 309 311 312 311 310 310 308 309 309 308 308 307 306 308 308 310 314 311 308 307 306 306 306 306 306 307 308 308 308 308
303 300 300 301 300 300 301 302 301 301 300 301 307 311 309 311 315 314 315 313 306 305 306 304 304 307 306 307 307 303 301 302 302 303 305 306 308 311 312 310 305 304 305 304 304 303 305 308 309 304 303 306 309 307 306 307 308 307 307 309 310 310 310 309 308 308 307 307 307 307 308 309 309 311 312 309 307 307 306 305 305 305 307 308 309 309 308 308
303 301 300 301 300 300 300 302 302 300 300 303 306 308 311 314 312 311 313 308 306 309 307 305 307 308 309 310 308 304 301 301 303 303 305 306 304 306 309 310 305 303 303 303 303 304 306 309 307 303 304 306 306 306 305 304 305 306 308 309 306 307 308 308 307 306 306 307 308 308 309 309 309 311 311 310 308 307 306 305 305 305 306 307 308 308 307 308
302 302 301 301 300 300 300 302 302 299 300 303 306 309 313 312 307 309 309 303 305 309 307 308 311 309 311 310 308 309 304 302 304 304 306 307 304 306 308 307 303 301 301 302 302 302 304 308 308 304 307 307 303 306 306 303 303 306 309 308 304 305 308 307 306 306 306 308 309 309 309 308 308 309 310 310 308 306 306 305 305 305 305 305 306 307 307 308
302 302 301 301 300 300 300 302 301 300 301 303 307 312 312 307 304 305 305 301 304 308 308 310 309 307 310 310 309 310 305 305 309 307 308 308 303 306 309 307 303 301 300 300 303 303 302 307 308 304 305 305 302 306 308 306 304 303 304 305 303 308 310 306 307 308 307 308 308 309 309 309 310 310 309 309 308 306 305 305 305 305 305 305 306 306 307 308
302 301 300 300 300 299 301 302 300 300 303 304 306 309 309 306 303 302 302 302 303 307 309 310 307 305 308 309 310 308 303 305 309 305 306 306 301 303 307 306 304 302 300 300 304 305 302 305 309 305 302 302 304 307 308 308 307 304 305 306 305 308 309 306 306 307 307 308 308 309 309 309 312 312 309 308 308 306 304 304 304 304 306 307 305 306 307 307
301 300 301 300 299 300 301 300 299 301 305 306 306 307 306 304 302 301 302 303 302 304 307 310 308 305 306 307 307 306 304 304 305 304 304 304 303 303 304 305 305 302 301 300 302 304 303 303 307 308 304 302 304 306 305 306 305 305 307 306 305 307 308 307 305 305 307 308 307 309 309 309 312 312 309 307 307 305 304 304 304 303 306 307 306 306 308 308
300 301 302 300 299 300 300 300 299 301 306 307 305 305 304 303 302 300 301 302 301 301 305 308 308 308 308 308 306 305 306 306 305 304 305 304 304 303 302 304 304 302 301 302 303 304 304 303 306 308 308 308 307 303 302 302 302 304 305 304 306 308 308 308 307 306 306 307 307 307 308 308 310 311 309 308 306 304 303 303 303 304 305 307 307 307 307 309
300 303 304 300 299 300 300 300 299 300 306 307 304 303 304 303 302 301 300 301 301 299 300 303 306 308 309 307 306 306 306 306 305 305 306 305 304 303 303 303 303 302 303 305 303 302 302 303 305 307 306 305 304 299 296 297 300 302 303 303 306 307 307 309 308 307 305 305 306 306 306 309 311 311 310 308 305 303 303 303 304 304 305 307 309 308 308 309
301 302 302 300 299 299 299 300 300 301 305 304 301 302 303 301 301 302 300 301 301 299 299 301 302 305 306 303 304 305 304 305 307 308 308 306 303 303 303 303 303 301 301 303 302 300 301 303 304 306 306 304 303 301 297 295 299 302 302 303 305 305 306 307 307 306 305 304 306 307 307 311 313 311 308 306 304 302 303 304 303 304 304 306 308 308 308 309
301 300 300 299 299 299 300 301 301 303 304 301 299 300 302 300 301 302 301 301 301 300 302 303 301 302 304 301 303 305 304 304 306 305 305 304 303 302 302 303 302 300 301 303 302 300 302 304 303 304 308 309 309 310 307 303 303 304 302 302 302 303 304 304 304 304 305 306 307 307 308 311 313 311 308 306 305 304 303 303 303 303 303 305 306 306 307 308
300 300 299 299 299 299 300 300 301 303 303 302 301 302 302 301 301 302 301 300 300 299 302 303 300 302 304 301 302 305 303 303 304 302 302 303 302 301 301 302 301 300 301 301 300 299 302 304 302 302 305 307 307 308 307 305 304 304 301 300 300 300 301 303 304 305 307 307 305 306 308 310 310 309 307 306 305 304 303 302 302 302 302 304 307 306 305 306
300 301 299 298 298 299 299 299 299 302 303 302 302 303 304 304 301 300 300 300 300 299 300 301 299 301 303 301 302 304 302 301 301 302 303 303 302 301 301 301 300 300 302 300 299 301 303 302 301 303 305 306 305 304 302 301 301 302 301 300 299 300 300 302 303 306 309 308 305 307 308 308 308 306 305 305 304 303 303 302 302 302 302 303 307 308 306 305
301 302 299 298 299 298 298 298 297 299 301 301 302 303 304 304 303 301 300 300 300 299 299 299 300 301 303 303 304 305 303 301 301 301 304 304 302 300 300 300 300 300 301 300 299 302 304 303 302 302 303 302 302 301 299 299 300 300 300 300 299 300 301 302 303 306 308 306 307 311 309 306 306 305 304 305 304 302 302 301 301 301 301 302 307 309 308 306
302 302 300 300 302 300 298 299 298 297 299 300 301 303 303 303 304 303 301 299 299 300 300 300 300 302 305 304 305 305 302 301 301 302 304 304 302 301 300 299 299 299 299 299 299 300 304 304 301 300 302 302 301 300 299 298 299 299 299 300 299 298 299 301 301 303 306 306 308 310 308 305 304 304 304 305 303 302 301 301 300 300 300 301 304 307 309 308
301 301 300 300 303 301 299 300 299 298 299 300 301 304 304 303 303 303 301 299 299 300 300 302 303 303 303 303 305 306 304 304 306 305 304 303 302 302 303 301 299 299 298 299 298 297 301 305 302 300 302 304 301 298 297 298 300 301 300 299 298 298 298 298 299 300 301 304 305 306 305 304 303 304 305 304 301 301 300 300 299 299 299 300 300 303 307 309
301 301 300 300 300 299 298 299 299 298 300 300 301 303 303 303 303 302 300 301 305 303 299 302 305 302 301 301 304 306 305 308 313 309 305 304 303 303 305 304 302 298 297 299 298 295 297 304 304 300 302 305 301 297 297 299 301 302 301 299 296 295 296 297 297 298 300 303 305 304 305 307 307 304 303 301 300 300 300 299 299 299 299 299 299 300 303 307
302 302 301 300 299 298 298 298 298 299 300 300 301 302 303 303 302 301 300 301 304 304 300 301 303 301 299 300 303 304 302 303 308 306 303 304 305 303 302 302 302 301 300 299 298 297 296 301 303 300 303 307 302 299 301 300 297 299 303 306 303 301 302 303 301 301 303 305 306 306 308 313 310 303 300 300 299 299 299 298 298 299 298 298 298 299 299 303
302 302 301 300 301 300 298 298 298 300 300 300 300 302 303 303 300 300 302 301 300 301 301 300 300 301 302 300 301 303 300 300 303 302 300 301 301 300 300 299 300 302 302 299 299 299 298 302 303 300 303 310 305 300 301 300 301 304 308 310 309 305 304 303 302 304 303 302 304 307 310 311 306 301 301 302 301 298 299 299 298 298 299 298 298 298 298 300
Wind_Speed
4 3 3 4 4 5 4 4 4 3 3 2 1 2 3 4 4 5 6 7 7 8 9 9 10 10 9 9 6 6 12 17 17 16 17 18 17 15 16 16 15 15 12 10 9 6 4 4 3 3 3 6 9 7 6 6 5 2 2 2 2 3 4 3 3 3 1 3 4 9 12 7 7 15 18 16 13 14 17 13 7 7 4 3 6 4 8 22
3 3 3 4 4 4 3 3 4 3 3 2 1 1 2 3 4 4 5 6 6 7 9 9 10 10 8 8 7 4 6 14 18 19 20 18 15 15 15 15 14 15 13 11 11 10 9 7 6 5 5 5 7 7 4 6 7 3 2 2 3 5 4 3 4 4 2 3 5 8 9 7 7 13 16 11 14 17 16 16 13 9 6 5 7 5 7 20
2 2 2 3 4 4 3 3 3 3 2 2 1 1 1 2 3 4 4 5 6 7 8 9 9 10 9 7 7 6 3 7 17 20 19 16 15 14 14 14 13 13 14 14 13 12 10 9 7 5 5 5 5 5 4 7 6 3 2 0 5 4 3 3 5 4 4 4 5 6 6 8 10 12 11 6 10 13 8 15 15 10 10 7 7 6 10 19
1 1 1 2 3 4 3 3 3 3 2 1 1 0 1 2 3 3 4 5 6 6 7 8 9 9 10 7 6 9 4 2 12 17 17 16 15 14 13 14 13 13 14 14 11 9 8 8 5 2 5 4 4 4 3 6 5 2 1 3 5 2 3 5 6 4 5 5 6 7 6 8 12 9 8 6 5 7 9 16 14 14 16 11 8 8 13 20
2 1 1 1 2 3 2 2 2 3 2 1 0 0 1 1 2 3 4 5 5 6 7 8 8 8 10 8 7 10 4 1 9 14 16 15 14 14 13 13 13 14 14 13 9 7 8 7 2 3 6 4 4 4 2 5 5 3 3 6 6 2 3 7 7 6 7 8 9 8 5 7 9 7 11 9 5 9 15 18 16 15 14 9 7 7 13 21
2 2 2 2 2 2 2 2 2 2 2 1 0 1 1 1 2 3 4 5 5 6 7 7 8 7 8 8 7 9 5 2 6 12 14 15 13 13 12 12 13 14 14 13 12 11 11 11 6 3 4 4 4 3 1 5 4 2 4 5 8 6 5 9 9 9 10 10 10 8 7 10 9 9 15 15 14 21 25 23 20 18 15 13 9 8 13 21
3 2 3 3 2 2 2 1 2 2 2 1 1 0 1 1 2 3 3 4 5 5 6 7 7 7 6 7 6 7 7 5 6 11 13 14 13 13 12 11 13 13 13 14 16 15 13 13 12 6 3 3 3 3 3 7 4 3 4 6 9 10 10 14 14 14 14 15 18 15 13 17 13 8 10 14 22 29 29 26 25 22 20 20 19 18 17 21
3 3 3 3 3 2 2 1 1 2 2 1 1 0 1 1 2 3 3 4 5 5 6 6 7 7 6 6 4 3 6 6 7 10 12 14 13 12 11 11 12 13 14 15 17 17 13 12 13 7 2 1 2 4 5 8 5 5 4 7 8 11 13 17 19 21 24 25 25 18 16 23 19 10 10 19 29 30 28 27 26 26 26 26 29 29 26 24
4 3 3 3 3 2 2 1 1 2 2 1 1 0 0 1 2 2 3 3 5 5 6 6 6 8 6 6 4 2 5 7 8 11 12 14 14 12 10 10 11 12 14 15 16 16 13 10 9 6 2 1 3 5 4 5 3 2 5 9 11 14 18 20 21 25 26 24 18 10 14 22 18 9 12 25 29 23 22 22 20 22 26 28 30 33 33 31
6 4 3 3 3 3 2 2 2 2 2 1 1 0 0 1 2 2 3 3 4 5 6 6 6 7 6 6 4 1 4 8 9 11 12 14 13 10 9 10 12 12 13 15 15 15 12 9 8 5 2 2 2 5 3 1 3 5 10 14 17 20 23 22 22 27 23 17 13 9 9 18 16 5 9 26 22 17 19 18 17 19 22 25 27 32 35 36
6 4 4 4 4 4 3 2 2 2 2 1 1 0 0 1 2 2 3 4 5 6 6 5 6 6 4 4 2 1 5 8 9 10 11 13 13 10 8 9 12 12 13 14 15 15 11 9 8 4 1 1 3 5 3 3 6 10 12 14 18 18 20 20 19 22 16 9 10 11 7 14 14 3 14 27 17 14 19 18 19 21 23 26 26 29 32 35
7 5 5 5 4 4 4 3 3 2 2 2 1 1 0 1 2 2 3 4 5 6 6 6 6 5 3 1 1 2 5 7 9 11 11 13 14 11 9 11 12 12 12 13 14 13 10 10 9 4 2 3 4 3 2 5 9 11 8 8 13 12 13 14 11 10 5 3 4 6 2 8 7 11 24 25 12 14 19 18 19 19 22 25 27 29 30 31
8 6 6 6 5 5 4 3 3 3 3 2 1 0 1 1 2 3 4 4 5 6 6 6 6 6 4 0 1 3 5 7 10 11 12 12 13 11 10 13 13 12 12 12 12 11 10 11 10 5 2 1 2 2 5 9 8 7 2 1 6 8 8 7 3 3 3 3 4 6 2 6 8 19 28 20 14 16 16 16 18 22 23 23 25 29 30 29
8 7 6 6 5 5 5 4 4 4 3 2 1 0 1 2 2 3 4 5 5 7 7 6 5 5 3 1 2 4 4 7 11 12 12 12 11 10 10 12 13 13 12 11 10 10 10 10 9 5 2 1 3 4 7 7 3 2 1 1 2 3 5 6 4 3 2 4 7 7 3 7 8 19 26 20 18 17 15 17 21 26 28 26 25 27 30 30
9 8 7 6 6 6 5 5 4 4 3 2 1 1 2 2 2 3 4 5 6 7 8 7 4 4 2 1 2 4 4 7 11 12 11 12 12 10 11 11 11 13 12 10 8 8 9 9 7 5 3 3 4 4 4 4 3 2 1 2 2 1 5 10 7 5 6 5 7 7 3 7 8 18 25 23 21 18 17 20 24 29 30 28 27 26 28 30
9 8 7 7 6 6 6 5 5 4 3 2 1 1 2 3 3 4 4 4 6 8 7 4 3 3 2 2 2 4 7 9 11 12 11 12 12 12 13 9 9 12 11 9 7 7 8 7 6 5 4 3 3 3 4 3 4 3 1 3 4 4 5 7 7 6 8 4 4 6 5 6 7 14 21 20 19 19 18 22 28 32 31 29 29 27 27 28
11 9 8 7 7 7 7 6 5 4 4 3 2 2 3 4 4 4 4 4 7 8 4 1 3 4 1 1 3 6 9 10 12 10 10 12 12 14 13 8 10 12 9 7 5 6 7 5 4 3 3 3 2 3 5 4 4 4 1 2 4 6 6 6 6 6 3 2 4 6 6 10 11 15 24 26 26 25 23 26 31 33 33 30 29 29 29 29
12 11 9 8 7 8 7 6 6 5 4 3 2 2 4 4 5 4 3 4 7 6 2 1 4 3 1 2 6 9 11 12 12 9 9 10 11 15 12 9 13 12 8 6 4 5 6 3 1 1 3 4 3 4 3 3 4 5 4 4 5 5 6 8 8 6 3 2 7 7 7 12 14 17 26 31 31 30 28 29 32 34 34 32 31 31 31 32
14 13 11 9 8 8 8 7 6 5 5 4 3 3 4 4 5 3 3 5 6 2 1 3 3 0 3 6 9 10 12 12 10 8 9 9 11 14 9 9 13 11 8 5 5 6 4 3 3 2 3 3 1 3 3 5 6 7 6 5 6 7 8 9 10 9 6 5 8 8 9 12 14 16 21 27 27 26 28 29 29 31 31 30 30 31 32 34
15 14 12 10 9 9 9 8 7 6 5 4 3 3 3 2 3 2 4 7 5 2 3 5 4 4 6 8 8 9 11 10 8 8 8 9 12 11 7 10 10 8 8 3 5 5 3 3 2 3 4 5 5 5 6 6 5 6 5 5 7 7 9 10 9 10 6 3 7 8 8 11 15 15 19 25 22 19 23 24 25 28 29 29 29 30 32 33
16 15 14 12 11 11 10 9 8 6 5 4 3 2 2 1 1 2 5 6 4 4 5 5 6 5 5 6 7 8 9 8 7 7 8 11 13 8 7 10 6 4 6 4 4 3 2 3 3 6 8 6 5 4 3 2 3 4 4 5 7 5 9 11 9 10 5 3 7 9 9 12 15 15 19 22 14 12 18 19 23 27 27 28 28 29 31 32
17 17 15 14 13 12 11 10 8 7 6 4 3 2 2 1 1 4 6 4 5 6 5 5 6 5 4 5 6 7 7 6 6 6 9 11 11 7 7 8 5 2 5 5 3 4 3 1 4 5 4 2 3 2 3 1 2 4 3 3 6 5 7 9 6 4 4 3 10 11 9 12 15 14 15 16 11 14 20 18 21 24 24 25 26 27 28 30
17 18 17 15 14 13 12 11 9 7 6 5 4 2 2 2 3 4 5 4 5 5 4 5 5 5 3 3 5 6 6 6 6 6 10 11 10 9 6 4 3 3 4 5 4 4 3 5 6 2 1 2 3 3 5 4 2 3 3 2 6 5 4 5 4 3 5 6 10 10 9 9 11 9 8 13 15 15 17 17 16 17 17 20 22 24 26 27
18 18 18 16 15 14 13 11 9 8 7 6 4 3 2 3 3 4 5 4 3 3 4 4 5 5 2 2 4 5 7 8 6 7 9 10 11 9 4 3 3 3 2 2 1 2 6 10 8 4 4 2 2 5 4 3 4 4 4 3 6 6 2 6 8 9 8 6 4 9 10 6 3 6 7 10 11 10 14 19 22 22 19 18 16 17 21 25
19 19 19 17 16 15 13 11 11 10 8 6 5 4 3 3 3 5 4 1 3 3 2 3 4 3 2 1 3 5 8 7 5 8 7 7 10 7 3 2 3 2 4 3 2 4 7 8 5 2 5 5 3 5 3 1 5 5 4 6 7 6 6 8 10 10 8 4 3 9 8 5 4 7 8 7 6 7 11 16 21 27 27 24 21 17 17 19
20 20 20 18 17 16 14 12 12 11 8 6 6 4 3 3 4 4 2 3 3 3 3 2 2 1 2 1 3 7 6 4 5 7 5 6 8 5 2 2 1 2 4 4 3 3 4 3 2 3 3 5 4 5 4 3 3 5 4 5 6 5 7 10 10 7 4 5 5 4 2 5 8 8 6 5 4 5 10 12 16 24 26 27 26 24 22 18
20 21 21 20 18 17 15 12 12 11 8 7 6 4 2 2 3 2 2 4 3 2 2 2 3 2 2 1 4 5 2 5 6 4 4 6 7 4 2 3 1 1 2 5 3 2 3 3 4 4 5 5 4 4 4 4 2 5 4 2 5 7 9 9 7 4 2 5 7 1 3 4 7 6 4 5 4 6 9 11 14 19 21 25 28 29 27 23
19 21 22 21 19 19 16 13 12 12 9 7 6 4 1 1 2 1 4 2 1 2 1 2 3 2 2 1 4 2 3 6 4 2 6 7 5 3 2 3 2 3 1 3 1 4 2 1 2 3 5 3 3 4 5 4 0 7 5 4 8 8 7 6 4 3 2 2 5 2 1 3 6 5 4 4 5 7 9 10 11 14 19 23 27 31 31 26
19 21 22 22 20 20 18 15 13 12 10 7 5 4 1 0 0 3 4 0 1 2 1 2 3 2 1 1 3 1 2 4 1 4 8 6 4 4 3 4 2 3 2 4 4 5 2 2 1 2 2 3 6 6 4 5 4 9 6 6 8 6 3 2 0 1 1 1 4 5 2 2 6 5 3 4 5 6 9 9 9 13 20 23 26 31 32 28
18 20 22 22 21 21 19 16 13 12 11 7 5 4 2 2 3 5 1 2 1 1 1 2 3 2 2 2 2 1 1 3 4 5 6 4 5 4 3 5 2 2 1 1 4 8 9 8 4 2 3 5 3 4 3 5 9 10 6 5 5 3 3 2 1 2 3 1 5 4 0 1 5 4 2 2 4 6 8 11 12 16 20 23 26 30 30 28
17 20 22 22 22 21 19 17 14 12 11 8 6 5 3 2 4 4 3 3 1 0 1 1 1 1 3 3 1 2 2 3 5 3 3 4 5 5 3 2 2 3 4 4 3 7 8 4 3 3 3 2 3 4 2 2 7 6 4 4 4 4 4 3 3 3 4 4 6 3 1 1 4 4 4 5 5 5 8 11 13 16 20 25 28 30 28 27
16 19 21 22 23 22 20 17 15 14 12 9 7 5 4 1 1 3 4 2 1 1 1 1 1 3 4 3 0 2 2 2 3 2 1 2 3 3 3 1 0 4 4 4 4 7 5 1 3 2 1 3 4 4 5 4 5 5 4 4 5 5 4 5 4 2 1 4 5 1 3 2 5 7 9 9 7 7 10 13 14 15 19 25 29 29 27 26
17 19 21 23 24 23 21 18 16 15 12 10 8 4 5 3 3 5 3 1 0 1 1 2 2 3 3 1 1 1 0 2 2 1 0 1 4 2 2 0 3 3 1 3 3 6 5 4 4 2 1 2 4 2 4 4 4 5 4 3 4 3 4 5 4 4 3 5 7 6 3 2 5 7 8 7 7 12 17 19 19 18 19 21 24 24 25 23
17 19 21 23 24 24 22 19 17 16 13 12 8 4 4 3 5 3 2 4 2 2 2 3 2 3 2 1 2 1 0 2 1 2 2 2 3 1 1 3 2 3 1 1 2 1 2 5 4 1 0 2 3 2 2 1 3 5 2 2 4 3 2 1 2 4 6 8 10 6 1 2 6 6 5 5 10 17 22 22 22 22 21 20 18 18 22 19
18 19 21 23 23 24 23 20 18 16 16 13 6 3 3 5 4 2 3 4 2 1 1 2 3 3 2 2 2 1 2 2 1 2 2 1 1 2 2 2 1 2 3 2 2 1 1 5 6 2 2 5 2 1 3 4 2 4 1 3 2 3 4 2 3 5 7 8 7 3 1 4 6 6 4 5 11 18 22 23 24 25 25 22 17 15 19 17
18 20 21 22 23 24 24 21 19 18 18 13 5 1 6 4 3 4 3 3 4 4 3 2 2 2 2 3 2 1 2 1 2 2 2 1 2 3 3 3 1 2 3 2 1 1 1 5 5 2 0 2 1 1 3 4 1 2 2 1 2 3 6 2 3 5 4 5 4 2 4 6 5 5 4 4 9 12 15 19 21 22 24 21 16 15 14 11
19 20 20 21 23 24 25 22 20 20 19 11 4 5 6 3 3 4 2 4 4 5 5 1 1 2 2 2 2 2 0 2 2 1 2 2 1 3 3 2 2 2 3 3 1 2 1 5 5 2 1 1 2 1 3 5 3 2 2 2 2 1 4 3 1 3 2 3 4 3 6 8 5 4 5 8 13 13 11 14 17 19 22 19 14 13 9 4
18 17 17 19 21 24 25 22 21 22 16 7 3 5 3 3 3 3 4 4 3 4 5 3 3 3 3 2 3 3 1 1 2 1 1 2 1 3 5 2 2 1 2 3 1 1 1 3 6 2 1 2 4 3 2 4 4 1 2 1 2 2 2 1 0 1 3 4 5 5 6 6 3 4 9 13 16 16 15 14 13 16 20 17 12 9 5 3
16 14 15 18 22 24 24 22 23 21 12 4 5 5 2 3 3 4 7 4 3 3 3 4 2 1 3 4 3 3 2 3 2 0 1 1 1 3 4 3 2 2 2 3 2 1 1 0 5 5 2 3 4 3 0 3 4 2 3 3 1 2 2 1 1 1 2 4 5 6 7 5 4 4 7 12 13 13 15 14 12 15 19 15 10 9 5 3
18 12 11 18 23 24 24 23 21 16 6 3 6 3 1 2 3 6 8 5 3 3 2 3 3 2 3 4 2 2 2 3 3 2 2 2 1 2 3 4 4 3 2 3 2 1 2 1 3 6 5 3 2 1 3 2 3 2 2 3 2 1 1 1 1 2 1 2 3 5 7 7 5 2 3 10 12 10 11 12 12 16 20 15 9 7 4 1
19 8 8 20 25 26 27 22 14 9 3 2 3 2 1 3 4 7 8 6 3 3 2 3 4 4 4 3 3 3 3 2 3 2 2 3 2 2 3 6 8 7 3 3 1 2 1 1 3 5 5 2 4 3 2 3 4 2 1 1 2 1 2 2 1 0 1 1 3 3 5 8 5 2 3 6 8 10 12 12 12 17 22 19 10 4 2 3
18 5 9 24 27 29 29 15 5 5 3 4 4 3 3 4 5 7 8 6 3 2 2 2 3 3 4 3 3 4 4 2 3 2 3 4 3 2 4 8 12 11 6 1 1 2 2 3 0 5 5 4 8 7 2 3 4 3 1 0 2 2 3 3 1 2 1 2 3 2 4 7 5 4 4 5 8 13 16 14 13 17 22 21 12 3 1 3
15 6 15 27 30 33 26 6 1 4 2 2 3 3 5 5 4 5 7 5 3 2 2 1 2 3 3 2 3 4 4 3 4 4 3 3 3 2 5 11 11 9 5 1 1 2 2 3 1 5 5 4 7 6 0 4 4 2 2 0 1 1 2 3 2 1 1 2 1 1 4 6 4 3 3 8 11 15 17 16 16 17 20 21 14 6 1 3
14 10 17 26 31 32 19 3 4 8 4 2 2 2 4 5 5 6 6 6 6 4 3 2 3 3 2 3 3 4 5 3 3 3 3 3 2 2 7 12 10 6 4 2 3 5 2 0 1 3 6 6 7 6 5 6 3 2 3 1 1 0 2 1 1 2 1 2 2 0 4 7 6 5 6 10 12 13 16 19 18 17 18 18 12 7 5 5
15 10 11 22 30 27 13 3 4 6 6 5 2 4 4 2 7 9 7 7 8 6 4 2 3 4 2 3 3 1 4 2 1 2 1 2 1 2 6 9 8 5 4 4 6 8 4 1 3 2 2 3 4 5 4 4 3 2 1 1 1 0 1 2 1 1 2 2 2 2 5 9 12 12 12 13 12 14 18 22 23 21 21 19 9 4 5 5
14 6 6 13 19 20 14 8 3 3 6 7 2 3 6 3 4 9 8 6 8 8 5 2 4 5 3 3 3 2 3 1 1 1 2 3 2 0 4 6 5 5 5 7 8 5 2 1 4 6 5 5 5 7 3 1 3 5 6 7 3 2 3 3 1 2 3 1 3 4 5 9 16 15 15 15 13 13 15 18 22 22 24 24 12 6 4 5
12 5 9 13 10 13 14 12 9 4 5 11 6 4 10 7 1 4 7 6 8 10 5 1 4 5 4 6 5 3 4 1 1 2 3 3 2 1 3 4 3 5 7 8 7 4 4 2 4 6 9 9 8 10 4 2 3 7 8 9 5 3 4 4 5 5 2 1 4 5 2 6 15 15 14 14 13 11 12 16 20 21 22 24 17 9 8 6
10 6 21 26 11 7 11 14 20 16 6 10 9 3 9 11 5 6 6 3 6 10 7 2 4 8 9 9 6 3 4 1 1 4 3 3 3 2 2 1 2 6 7 5 5 4 4 3 4 4 7 10 10 12 8 3 5 7 7 11 10 5 6 8 9 7 3 3 6 7 5 7 13 14 11 11 11 11 13 17 19 18 18 20 20 16 9 10
13 4 19 28 12 10 19 18 21 21 9 7 7 4 9 13 11 8 5 4 3 8 9 6 7 11 10 8 7 5 6 4 4 6 4 3 4 3 2 1 2 4 5 3 2 3 3 3 4 2 5 10 9 9 7 5 4 5 8 11 10 8 8 9 9 8 7 9 10 9 10 11 11 9 9 12 15 16 17 18 18 17 18 18 18 20 15 8
22 9 15 22 11 9 19 15 15 16 9 6 7 4 8 12 13 8 5 8 7 4 8 11 9 11 11 8 8 7 9 10 6 5 8 5 3 4 3 3 4 3 2 2 1 2 1 2 1 2 3 9 6 3 1 4 5 6 10 10 7 7 7 7 7 5 6 9 10 7 8 9 7 6 9 16 19 17 16 18 18 18 19 18 17 17 16 12
31 17 13 16 8 8 14 11 12 11 7 7 8 6 8 11 14 11 6 13 14 8 13 18 10 8 7 7 9 12 15 14 4 3 12 10 6 7 5 5 9 7 3 3 2 2 2 2 2 5 3 7 4 4 5 2 2 4 11 12 8 5 4 5 6 6 6 5 5 3 4 6 5 5 10 15 16 15 15 17 19 20 19 19 17 15 15 13
36 23 16 15 9 10 12 7 8 9 8 11 13 11 10 10 14 16 7 12 18 15 17 21 14 9 5 7 15 23 22 15 2 3 11 9 5 6 6 9 14 10 6 5 2 2 4 2 1 2 2 6 5 5 6 4 3 3 8 8 7 6 5 5 4 6 7 5 2 2 3 5 4 6 8 9 11 13 15 16 18 19 19 18 17 14 14 14
Wind_Direction
105 111 119 120 127 131 142 146 133 128 115 108 84 61 53 51 48 43 37 32 27 25 24 22 24 29 26 20 28 41 45 42 32 32 42 39 30 26 23 14 7 4 1 349 341 343 1 12 18 44 63 50 35 32 53 47 50 88 98 109 227 206 201 214 209 207 189 250 297 334 354 4 315 327 328 319 306 301 311 305 322 333 307 275 257 277 222 190
104 110 124 123 126 130 140 146 140 132 122 122 96 60 48 48 46 38 33 29 24 22 22 18 16 23 26 18 12 8 32 33 25 30 37 32 25 23 20 12 5 5 5 1 7 12 10 15 30 44 46 50 30 26 56 32 33 61 100 117 231 203 218 235 199 205 207 252 279 312 326 330 314 319 324 319 299 310 318 297 295 311 307 281 268 274 215 191
110 107 120 124 123 125 135 146 145 134 126 130 121 49 40 44 41 31 27 24 18 20 20 17 11 13 19 14 4 349 325 12 19 26 27 21 20 18 16 12 9 14 13 12 17 11 0 357 1 25 42 55 31 18 42 23 25 45 73 112 240 220 286 257 195 211 230 271 285 291 302 294 292 301 305 294 298 309 297 285 291 292 299 297 272 246 209 199
128 131 115 123 124 122 129 147 151 136 130 140 140 17 24 25 32 24 18 17 11 14 15 17 10 3 10 8 2 350 303 330 14 21 17 11 13 12 13 10 13 25 21 13 15 10 3 354 336 43 70 59 22 10 33 15 4 341 124 196 239 240 314 248 216 248 248 282 289 280 291 290 295 287 264 263 303 295 260 271 283 289 292 285 269 246 212 205
172 199 184 146 133 125 128 149 155 141 136 143 153 320 357 4 18 16 14 10 4 7 9 16 10 359 2 2 4 355 334 257 5 16 14 6 7 7 9 6 13 27 23 11 8 8 14 20 22 105 75 52 21 28 26 1 354 320 243 240 267 253 282 259 242 258 259 284 285 276 286 291 296 269 253 253 239 254 262 270 277 283 279 256 241 246 230 216
183 203 198 181 157 128 121 144 151 145 142 143 157 304 334 347 359 5 11 3 357 1 2 8 7 2 357 0 14 11 34 103 4 16 14 4 3 4 4 2 11 20 20 12 9 15 17 28 55 82 54 46 31 35 358 339 341 306 275 273 282 262 263 274 270 272 274 282 278 275 291 288 279 268 266 249 243 265 272 271 269 267 254 237 226 234 240 224
177 196 201 191 180 152 136 148 153 155 152 156 171 289 316 335 348 358 2 357 352 352 357 2 0 1 355 358 16 22 47 66 17 18 14 8 4 1 360 358 6 8 11 11 13 17 12 22 39 48 39 46 26 358 343 321 289 208 264 284 285 278 271 278 285 288 286 283 282 291 296 282 268 268 276 253 258 273 275 270 264 260 250 244 244 246 245 232
190 192 202 194 186 172 160 163 166 172 167 163 164 277 309 331 333 349 351 346 345 341 352 359 353 355 353 357 3 8 28 30 18 16 12 11 5 360 357 357 0 359 3 7 10 10 10 24 32 34 34 56 359 331 349 329 289 184 244 278 283 282 275 279 284 284 285 285 287 293 282 276 274 273 275 268 270 275 277 275 268 264 257 249 248 249 249 244
207 203 205 200 194 181 179 199 194 185 181 169 161 209 278 322 324 343 341 334 337 332 344 357 352 349 353 1 355 335 3 8 13 12 9 9 3 357 354 359 359 358 1 1 4 3 7 27 25 20 344 285 321 323 7 4 308 193 269 288 290 287 284 284 282 282 283 285 286 286 275 278 287 297 273 271 276 282 282 276 271 266 260 252 246 245 246 248
212 216 212 208 196 181 196 216 205 190 188 179 172 143 291 313 325 335 328 323 326 323 335 353 353 345 353 7 3 19 1 1 9 8 5 3 2 359 355 1 360 359 1 355 358 359 3 17 10 8 318 262 284 300 316 312 278 297 304 299 291 288 291 289 282 282 283 282 272 242 261 275 282 323 268 272 285 296 290 282 275 267 264 261 251 246 244 244
211 214 211 212 196 187 203 210 205 197 189 190 183 161 304 303 327 330 321 317 317 320 331 344 351 344 346 6 20 54 1 359 6 5 2 358 359 5 360 356 358 3 3 356 355 356 1 5 1 9 323 267 281 289 277 254 282 301 312 306 295 294 297 287 278 281 279 281 260 223 240 278 281 260 248 268 286 295 294 295 287 273 265 267 262 257 251 246
205 204 206 210 197 195 206 206 209 200 196 205 188 184 302 298 325 328 313 311 311 316 328 338 346 342 338 10 12 354 358 359 359 358 0 358 357 3 359 348 354 2 359 357 356 352 356 355 357 2 298 285 286 309 301 295 299 296 305 305 302 318 311 286 274 275 249 248 245 186 237 288 260 235 251 264 274 282 290 297 301 294 279 271 265 260 257 255
201 203 204 207 200 201 208 205 208 204 205 209 192 228 288 302 324 324 312 308 311 319 328 335 336 335 339 345 279 319 350 351 350 354 357 358 355 357 356 345 347 358 357 356 354 348 348 347 350 343 316 291 275 315 308 307 306 287 263 211 309 334 312 294 303 230 209 248 201 146 268 269 240 251 258 261 258 270 283 293 305 307 300 290 275 262 255 258
201 205 205 206 199 204 212 209 208 207 209 212 208 253 279 307 321 317 314 307 312 324 328 328 328 328 331 291 282 300 332 339 343 352 353 354 353 351 355 348 343 350 354 353 347 341 339 341 343 339 349 341 306 313 317 326 330 278 237 113 354 333 279 310 354 167 212 272 196 157 259 256 261 269 267 265 260 262 271 286 296 298 299 298 290 275 258 255
201 203 201 203 204 206 212 214 211 210 215 217 229 270 292 306 315 315 310 306 317 327 323 318 316 323 327 279 273 291 317 330 338 347 349 350 352 350 354 353 344 345 348 346 341 330 330 334 337 342 345 333 344 352 341 344 347 353 356 323 324 237 268 306 315 210 226 266 188 166 264 263 264 272 271 272 268 258 260 277 287 288 291 291 291 286 270 259
200 204 204 202 207 209 211 218 214 214 221 220 244 270 299 304 308 314 300 301 322 326 320 310 307 326 339 310 293 306 318 327 336 343 346 348 353 353 354 355 344 342 341 337 331 321 325 331 331 346 355 350 31 33 10 0 339 4 39 289 282 272 296 312 309 248 235 251 197 205 252 273 266 269 273 272 265 258 261 275 280 280 280 280 284 284 278 268
203 209 211 204 208 212 214 219 216 219 223 225 249 263 300 304 304 310 286 299 325 324 319 293 312 318 297 310 320 317 318 325 332 337 342 345 350 350 352 356 345 344 342 331 327 325 324 327 318 328 5 27 64 53 21 3 325 332 332 275 270 276 297 299 299 299 263 209 237 240 241 261 268 272 273 270 266 267 269 272 273 273 270 269 274 276 276 271
208 212 216 211 210 215 218 219 219 224 225 235 250 270 298 297 305 307 264 296 325 326 309 292 329 333 193 293 317 317 317 322 326 329 336 340 348 349 352 354 346 349 356 346 344 342 324 318 352 4 11 9 30 67 41 318 288 297 301 296 293 279 278 280 280 296 323 259 254 260 255 263 272 274 272 270 269 269 269 267 266 265 263 260 263 267 269 268
213 214 216 214 213 218 221 220 221 223 228 241 246 277 294 291 306 292 238 295 319 330 295 304 331 9 252 297 310 314 314 317 319 320 330 343 349 347 350 351 347 359 19 8 340 345 332 329 27 24 341 312 292 131 183 235 240 264 278 275 291 292 277 275 273 277 299 295 270 264 263 269 279 279 278 278 274 267 266 266 262 260 260 257 256 260 263 263
215 214 215 215 216 220 222 220 223 223 229 239 245 279 287 292 318 274 268 299 290 246 278 294 302 274 275 299 309 312 313 313 312 318 333 349 349 345 351 349 350 20 36 0 306 333 19 17 357 255 243 232 241 217 207 222 220 250 279 273 281 292 286 284 280 285 314 323 268 259 267 277 283 284 286 289 285 269 265 265 264 261 260 259 255 255 258 258
214 215 214 215 217 220 222 222 223 222 229 237 249 277 270 284 349 305 305 303 268 272 284 291 301 291 289 305 310 316 319 312 304 325 348 348 347 348 350 356 9 28 6 333 283 306 47 37 295 242 212 211 253 229 190 226 234 262 280 286 290 279 277 286 285 291 331 356 281 286 295 289 286 287 290 296 295 271 268 264 265 268 263 261 258 254 255 256
215 215 214 214 217 220 221 222 223 223 228 234 243 262 266 285 317 320 318 291 272 279 271 280 292 292 303 308 311 320 325 316 297 327 354 347 351 353 349 17 45 345 335 356 353 345 12 231 251 246 205 236 313 52 75 325 267 275 278 297 302 295 285 285 271 287 359 338 295 306 311 291 285 283 286 293 289 278 284 282 277 281 276 269 261 255 255 255
216 215 213 212 215 220 220 222 223 222 226 229 235 249 273 303 316 330 326 292 282 275 253 270 282 289 308 309 314 319 324 318 291 321 351 351 356 360 4 43 38 326 353 29 33 7 340 249 254 297 331 307 326 10 18 351 312 259 275 310 295 311 335 296 281 330 334 286 285 312 315 287 280 283 284 287 288 294 312 324 323 317 304 289 275 264 258 255
215 214 212 211 213 218 219 220 220 221 225 228 237 251 278 307 324 334 325 297 288 272 242 251 273 288 292 305 316 323 322 311 291 317 347 356 357 357 10 52 29 0 347 22 81 244 259 264 286 1 50 58 318 327 350 356 333 268 226 229 273 295 273 255 290 320 315 277 287 342 325 290 297 318 303 300 306 321 342 354 354 349 343 333 315 288 270 259
214 212 212 209 210 215 215 213 216 219 221 222 234 249 278 310 335 339 341 349 303 286 222 239 272 280 270 293 317 323 318 303 303 326 340 359 360 355 350 27 38 338 296 310 321 263 259 274 300 32 55 51 13 316 276 236 333 309 241 214 238 274 268 273 305 328 335 316 15 20 342 298 331 324 303 313 339 349 349 356 351 344 342 341 339 331 309 280
214 211 210 207 208 211 207 205 215 219 218 220 228 239 271 307 337 332 5 47 318 269 171 225 247 235 245 238 315 328 322 294 321 339 347 358 356 1 352 348 31 300 297 319 321 261 256 301 38 106 62 29 7 313 257 181 26 324 269 210 224 268 290 301 321 339 352 307 306 21 9 289 312 314 313 330 337 347 345 347 343 337 334 331 331 331 329 317
213 209 208 206 206 207 200 201 214 214 210 221 229 235 256 307 339 332 32 30 321 222 157 213 197 204 241 244 321 340 330 305 318 335 357 351 348 7 322 297 343 284 336 10 346 253 241 322 23 62 60 29 347 305 240 154 68 295 259 239 294 298 294 302 320 317 283 291 297 268 169 263 298 303 335 353 330 337 343 338 333 327 323 323 323 323 323 321
211 206 205 203 204 205 200 203 213 206 205 218 219 220 232 326 327 78 83 30 285 159 139 210 181 212 238 270 311 301 271 303 309 305 344 351 342 353 290 239 193 240 278 82 294 275 227 264 342 38 35 359 270 244 214 157 234 275 262 288 291 281 280 294 309 291 278 322 313 307 155 269 280 289 335 352 331 327 331 326 322 319 317 315 316 317 317 314
209 204 203 203 204 203 202 205 208 201 203 206 192 196 196 122 311 73 80 226 222 118 129 182 174 235 291 325 303 268 276 299 267 295 331 355 345 346 304 262 212 221 226 161 218 267 252 246 251 101 45 262 236 243 210 160 247 280 292 291 274 267 288 313 298 275 32 48 290 302 357 324 294 296 321 332 321 315 319 322 317 312 312 312 311 311 311 309
211 204 202 202 201 200 201 201 202 200 199 193 178 173 142 127 93 65 48 238 197 109 142 159 191 240 3 12 333 353 352 280 283 304 323 353 352 340 294 273 255 115 352 263 232 261 279 286 273 176 201 218 235 281 220 195 264 295 331 304 275 307 22 52 68 85 70 311 272 275 187 349 308 297 250 271 281 295 315 324 320 313 310 309 310 309 307 307
212 206 203 202 200 200 199 196 196 196 194 189 175 156 139 104 77 98 204 237 85 124 132 146 252 76 63 52 341 331 1 294 297 325 335 356 3 346 347 321 331 37 9 343 290 284 307 317 255 231 215 179 39 339 292 262 291 319 344 300 312 354 21 28 354 47 54 307 270 245 198 244 275 270 268 272 263 281 315 319 313 311 311 308 307 308 306 305
212 208 205 202 200 200 196 195 194 190 190 184 171 162 141 79 25 183 218 310 29 221 187 192 314 83 82 65 305 290 340 297 300 29 27 25 43 357 7 94 56 19 355 322 329 326 328 282 264 302 191 121 72 3 329 341 350 357 336 331 17 8 357 7 342 355 39 260 252 321 10 273 245 256 277 287 284 302 318 315 307 305 304 303 306 309 308 305
212 208 207 204 201 198 193 193 192 187 185 175 167 155 98 98 230 211 208 282 237 251 65 87 79 97 98 57 298 287 319 254 289 24 263 63 65 24 339 160 131 85 311 275 344 352 333 305 312 5 44 138 109 60 330 322 336 340 333 25 57 43 0 349 324 321 304 262 284 333 12 274 274 272 266 269 287 314 322 319 318 315 306 304 309 312 312 308
214 209 208 206 201 196 191 189 189 185 178 168 157 114 93 171 231 210 207 235 241 7 31 72 68 64 78 158 253 286 87 255 294 11 342 30 57 64 315 333 36 85 115 32 352 20 2 312 298 354 274 166 137 170 200 239 325 302 269 102 105 124 98 304 282 313 307 293 297 318 16 278 296 287 254 264 299 318 327 328 330 328 325 326 326 316 317 319
216 210 207 206 201 195 189 186 186 180 173 166 136 89 160 210 231 198 212 218 204 20 13 50 77 65 348 296 281 164 157 255 313 13 1 39 148 164 181 260 358 89 105 56 302 212 111 266 263 296 196 160 141 230 143 90 357 285 289 63 74 154 150 179 238 255 282 296 291 274 237 258 271 279 281 310 319 324 331 334 338 338 336 340 340 325 325 331
215 212 207 205 200 193 187 185 182 176 172 160 118 179 212 221 195 185 183 146 147 155 133 35 70 96 304 304 325 26 148 236 308 354 321 263 195 177 174 223 198 132 133 115 273 297 358 275 273 0 37 159 108 220 114 80 316 298 29 21 262 174 134 131 264 258 273 290 279 281 296 294 302 300 294 318 320 322 332 333 333 335 334 333 335 331 329 332
210 210 208 203 197 190 187 184 178 174 172 160 153 220 218 214 190 188 152 112 129 135 125 144 224 179 238 282 284 275 151 275 308 13 283 280 228 181 167 215 211 178 174 142 178 252 250 283 294 46 110 348 25 120 89 76 92 14 349 226 233 77 96 100 277 291 310 275 273 293 299 310 332 308 297 325 327 327 333 330 327 327 328 322 321 333 340 337
203 205 205 199 193 188 183 181 176 171 165 156 216 237 212 196 202 174 154 143 126 102 109 182 214 190 191 203 254 245 142 247 299 26 245 264 268 172 147 156 217 204 165 132 107 254 178 295 302 315 176 315 12 62 37 25 65 60 288 242 113 68 35 46 31 312 316 298 292 295 293 298 283 277 317 332 333 333 331 329 325 324 326 322 315 330 2 79
192 194 199 194 186 183 180 177 172 165 156 164 219 234 213 206 218 173 164 157 130 120 146 203 193 119 168 173 201 211 172 204 224 104 218 243 255 186 158 160 183 166 143 128 142 216 110 344 292 298 293 320 7 61 106 319 356 21 345 348 48 146 145 147 159 188 274 299 296 306 319 306 240 242 320 324 322 328 326 324 322 318 324 329 328 332 346 95
179 178 193 188 179 178 174 169 166 162 158 190 198 213 231 206 206 180 173 165 141 154 200 196 156 147 189 189 191 184 174 195 184 180 228 240 233 219 200 173 154 148 116 82 109 171 71 108 256 294 330 357 335 99 144 212 294 328 347 341 319 327 75 150 156 154 189 280 290 307 314 297 270 224 297 310 320 328 320 316 313 312 319 328 333 333 322 240
170 168 189 179 173 172 166 161 166 170 176 230 208 214 234 187 179 177 179 180 169 168 181 165 160 172 171 177 211 183 151 179 186 185 236 234 207 209 203 179 162 153 119 62 92 193 130 151 229 294 329 335 264 261 159 186 211 206 224 251 215 162 82 51 346 253 171 225 263 291 298 288 283 195 244 298 327 328 315 309 307 312 325 336 340 332 304 239
170 181 177 169 170 169 162 157 178 177 179 226 206 178 183 175 167 176 180 180 174 161 152 147 159 172 163 169 196 169 145 177 197 201 232 221 192 181 185 179 170 158 139 97 243 205 142 112 226 277 267 267 279 277 219 167 177 179 182 127 153 141 112 116 234 268 222 226 248 247 270 277 261 195 234 304 339 332 321 317 314 320 336 352 3 0 280 216
177 168 159 163 168 167 162 153 263 196 211 210 169 162 178 169 148 162 179 186 187 161 152 189 181 183 198 169 153 169 181 192 183 185 219 219 205 197 170 169 168 153 134 139 222 175 121 87 348 290 286 300 306 294 257 75 84 177 263 15 160 182 153 166 178 167 248 250 254 267 264 271 266 216 271 320 336 335 331 332 330 331 345 3 15 19 32 163
166 140 151 164 168 168 170 177 187 200 228 171 139 169 180 188 177 166 182 199 195 163 149 202 195 185 194 127 125 187 202 201 193 191 203 197 192 168 159 167 171 160 162 202 171 169 187 100 115 341 337 339 344 343 343 3 26 219 257 256 205 18 53 97 127 95 281 237 172 235 276 275 291 314 327 332 339 340 340 344 344 343 353 4 12 20 48 119
147 126 153 171 172 175 191 230 170 187 198 169 180 189 165 203 207 193 195 197 191 175 158 181 169 146 122 102 96 198 204 200 230 204 186 191 199 136 155 176 186 184 190 177 150 156 183 218 149 116 347 323 321 316 296 302 310 266 271 265 237 332 95 175 163 136 258 224 178 214 255 282 303 322 335 341 351 348 342 346 350 350 355 4 19 47 51 94
157 141 151 169 181 196 219 241 203 163 180 176 184 199 184 197 217 202 199 197 196 181 152 130 148 127 95 132 142 221 229 224 40 188 192 202 231 95 152 182 199 197 176 156 153 141 109 232 199 182 199 214 241 256 245 45 320 292 291 289 266 194 190 183 159 201 208 238 282 239 229 290 307 319 332 338 349 349 338 341 348 349 354 5 31 112 107 80
174 180 167 159 182 221 235 249 232 207 177 179 176 191 188 184 175 195 198 207 202 182 152 97 166 159 158 163 160 210 218 170 71 201 204 196 199 64 138 169 169 179 166 152 164 133 81 266 239 199 222 241 247 259 283 31 278 263 275 285 269 170 161 182 211 223 187 44 294 250 209 309 305 310 325 331 340 345 335 335 339 342 349 3 28 88 134 132
186 189 178 171 167 198 208 227 217 206 191 181 182 169 176 183 190 189 189 197 194 187 182 220 217 198 183 166 155 171 178 155 256 216 195 177 169 89 102 170 139 169 167 148 167 142 109 246 239 189 243 261 255 262 270 241 252 254 251 266 268 237 185 197 229 243 199 182 250 266 297 304 295 301 311 318 323 320 319 329 336 341 352 5 23 47 92 147
188 165 178 183 188 183 187 199 196 191 195 191 188 167 171 189 200 189 154 111 197 217 203 209 222 204 190 172 159 163 171 175 221 220 194 163 174 152 124 217 199 176 166 137 157 146 120 239 230 185 275 274 262 269 263 214 240 271 253 252 256 249 228 222 243 252 230 237 255 273 293 290 278 277 289 306 312 307 314 332 344 352 360 8 21 33 49 94
190 177 169 184 199 182 183 185 169 175 198 200 200 206 186 195 199 188 152 157 179 219 202 213 219 187 184 186 177 196 204 183 177 198 179 154 169 192 182 178 167 152 153 141 119 118 147 255 238 101 311 291 291 327 320 186 204 261 276 271 258 260 257 239 242 240 230 249 253 252 279 283 263 255 290 311 318 318 325 340 350 356 360 5 18 29 36 49
195 189 167 175 186 166 172 167 148 165 200 198 197 204 201 209 197 178 188 202 197 177 186 204 199 151 167 193 200 228 219 188 158 170 177 171 175 190 195 172 155 143 150 171 137 127 164 264 2 59 346 290 302 359 331 306 184 258 285 284 257 233 227 217 218 207 202 230 247 246 280 273 267 301 315 320 327 330 336 345 349 354 359 3 12 23 27 35
195 194 184 175 178 173 169 146 142 174 196 194 197 199 200 203 175 160 184 233 217 207 203 197 173 132 145 194 214 230 221 198 163 109 158 161 144 150 159 159 156 151 158 159 136 152 153 144 67 60 326 276 283 308 308 346 22 287 272 253 218 207 230 250 249 220 211 221 227 222 251 262 287 324 322 321 327 328 335 346 349 350 357 2 8 18 20 24